Temperature
21 21 20 20 19 19 18 18 18 18 17 17 17 17 17 16 16 16 16 16 16 16 16 16 16 15 15 15 15 15 15 15 15 15 15 15 15 15 14 14 14 14 14
21 20 20 19 19 19 18 18 18 17 17 17 17 17 16 16 16 16 16 16 16 16 16 16 16 15 15 15 15 15 15 15 15 15 15 14 14 14 14 14 14 14 14
21 20 20 19 19 18 18 18 18 17 17 17 17 16 16 16 16 16 16 16 16 16 16 16 15 15 15 15 15 15 15 15 14 15 15 14 14 14 14 14 14 14 13
20 20 19 19 18 18 18 18 17 17 17 17 16 16 16 16 16 16 16 16 16 16 16 16 15 15 15 15 15 15 14 14 14 14 15 15 14 14 14 13 13 13 13
20 20 19 19 18 18 18 18 17 17 17 17 16 16 16 16 16 16 16 16 16 16 15 15 15 15 15 15 15 15 14 14 14 14 14 14 14 14 14 13 13 13 13
20 20 19 19 18 18 18 17 17 17 17 16 16 16 16 16 16 16 15 15 15 15 15 15 15 15 15 15 15 14 14 14 14 14 14 14 14 14 14 13 13 13 13
20 19 19 18 18 18 17 17 17 17 17 16 16 16 16 16 15 15 15 15 15 15 15 15 15 15 15 15 15 14 14 14 14 14 14 14 14 14 14 13 13 13 12
20 19 18 18 18 17 17 17 17 17 16 16 16 16 16 15 15 15 15 15 15 15 15 15 15 15 15 15 15 14 14 14 14 14 14 14 14 14 13 13 13 13 12
19 19 18 18 17 17 17 17 17 16 16 16 16 16 16 15 15 15 15 15 15 15 15 15 15 15 14 14 14 14 14 14 14 14 14 14 14 13 13 13 13 13 12
19 18 18 17 17 17 17 17 16 16 16 16 16 16 16 15 15 15 15 15 15 15 15 15 15 14 14 14 14 14 14 14 14 14 14 14 13 13 13 13 13 13 13
19 18 17 17 17 17 16 16 16 16 16 16 16 16 15 15 15 15 15 15 15 14 14 14 14 14 14 14 14 14 14 14 14 14 13 13 13 13 13 13 13 13 13
19 18 17 17 17 16 16 16 16 16 16 16 15 15 15 15 15 15 15 14 14 14 14 14 14 14 14 14 14 14 13 13 13 13 13 13 13 13 13 13 13 13 12
18 18 17 17 16 16 16 16 16 15 15 15 15 15 15 15 15 14 14 14 14 14 14 14 14 14 14 14 13 13 13 13 13 13 13 13 13 13 13 13 13 12 12
18 17 17 16 16 16 16 16 15 15 15 15 15 15 14 14 14 14 14 14 14 14 14 14 13 13 13 13 13 13 13 13 13 13 13 13 13 13 13 12 12 12 12
17 17 16 16 16 16 15 15 15 15 15 15 15 14 14 14 14 14 14 14 14 13 13 13 13 13 13 13 13 13 13 13 13 13 13 13 12 13 12 12 12 12 12
17 16 16 16 16 16 15 15 15 15 15 14 14 14 14 14 14 14 13 13 13 13 13 13 13 13 13 13 13 13 13 13 12 12 12 12 12 12 12 12 12 12 12
16 16 16 15 15 15 15 15 15 15 14 14 14 14 14 14 14 13 13 13 13 13 13 13 13 13 12 12 12 12 12 12 12 12 12 12 12 12 12 12 12 11 11
16 16 15 15 15 15 15 15 14 14 14 14 14 13 13 13 13 13 13 13 13 12 12 12 12 12 12 12 12 12 12 12 12 12 12 11 11 11 11 11 11 11 11
15 15 15 15 14 14 14 14 14 14 14 13 13 13 13 13 13 13 12 12 12 12 12 12 12 12 12 12 12 12 12 11 11 11 11 11 11 11 11 11 11 11 10
15 15 14 14 14 14 14 14 14 14 13 13 13 13 12 12 12 12 12 12 12 12 12 12 11 11 11 11 11 11 11 11 11 11 11 11 11 11 10 10 10 10 10
14 14 14 14 14 14 14 14 13 13 13 13 13 12 12 12 12 12 12 12 12 11 11 11 11 11 11 11 11 11 11 11 11 11 11 11 10 10 10 10 10 10 10
14 14 13 13 13 13 13 13 13 13 13 13 12 12 12 12 12 12 12 12 11 11 11 11 11 11 11 11 11 11 11 10 10 10 10 10 10 10 10 10 10 9 9
13 13 13 13 13 13 13 13 13 13 13 12 12 12 12 12 11 11 11 11 11 11 10 10 10 10 10 10 10 10 10 10 10 10 10 10 10 9 9 9 9 9 9
13 12 12 12 12 12 12 13 13 12 12 12 12 11 11 11 11 11 11 11 11 10 10 10 10 10 10 10 10 10 10 10 10 10 9 9 9 9 9 9 9 9 9
12 12 12 12 12 12 12 12 12 12 12 12 11 11 11 11 11 11 11 10 10 10 10 10 10 10 10 10 10 10 10 10 9 9 9 9 9 9 8 8 8 8 8
12 12 12 12 11 11 12 12 12 12 12 11 11 11 11 11 10 10 10 10 10 10 10 10 10 10 10 10 10 10 9 9 9 9 9 9 8 8 8 8 8 8 8
Wind_Speed
4 6 6 6 5 4 4 5 4 4 4 2 2 2 2 2 2 1 2 2 1 2 3 2 3 3 3 2 2 3 3 2 2 3 3 3 4 4 3 3 4 5 7
4 6 6 5 4 4 4 4 4 3 5 3 3 3 2 2 2 1 2 2 2 2 3 3 3 3 3 2 3 3 2 0 1 1 2 1 3 3 3 2 3 3 5
4 5 5 5 4 4 3 3 3 4 5 4 3 3 2 1 2 1 1 1 2 3 3 4 3 3 3 2 2 3 2 0 1 1 1 1 1 1 2 3 3 3 3
5 5 5 5 4 4 3 3 3 4 4 4 3 3 3 2 1 1 1 0 1 2 2 3 3 3 3 3 3 3 2 2 0 1 1 1 2 2 0 2 2 3 3
6 5 5 5 5 4 4 3 3 4 4 4 3 2 2 1 1 2 1 1 1 1 2 2 2 2 2 2 2 2 1 1 1 0 1 1 0 1 2 1 0 1 1
5 5 5 5 5 5 4 3 3 3 3 3 3 2 3 2 2 2 1 1 1 1 1 2 2 2 2 2 2 2 2 0 0 0 1 1 1 1 1 1 1 1 1
4 4 6 5 5 5 4 3 3 3 3 3 3 3 4 3 2 2 2 1 1 1 1 2 2 1 2 3 2 2 2 1 1 0 0 0 1 1 1 1 1 1 1
5 4 5 5 5 5 4 3 2 2 3 3 3 3 3 2 2 2 2 1 1 2 2 2 2 2 2 2 2 1 1 1 1 1 1 0 0 1 1 2 2 1 0
5 5 4 5 5 5 4 4 3 2 2 3 3 3 3 3 2 2 2 1 1 1 2 2 2 2 2 2 2 1 1 1 1 0 0 0 0 1 1 1 2 2 1
4 4 3 2 4 4 4 4 4 3 3 2 2 2 3 3 2 1 1 2 2 1 2 2 2 3 2 2 1 1 1 1 1 1 0 1 1 0 1 1 1 1 2
3 3 2 2 2 3 3 3 3 3 2 2 2 2 2 2 2 2 2 2 2 2 2 3 3 3 3 3 2 2 2 2 1 1 2 2 1 1 1 1 1 0 2
2 3 3 2 2 3 3 3 3 2 2 2 2 2 1 2 2 2 2 1 2 2 2 2 3 3 4 3 3 3 2 2 2 2 2 1 1 1 1 2 2 1 2
1 2 3 2 2 2 3 3 3 3 3 3 3 3 3 3 2 2 2 1 1 1 1 1 2 2 3 3 3 2 2 1 2 1 1 1 1 1 1 1 1 1 2
2 1 1 2 1 2 2 2 2 3 3 3 3 3 3 2 2 2 2 2 1 1 2 2 2 2 1 2 2 2 2 1 0 0 0 1 1 1 2 2 1 1 2
1 1 0 1 1 1 1 1 2 3 4 4 4 3 2 2 2 2 1 1 1 2 2 2 1 1 1 1 1 1 1 1 1 0 1 1 2 2 1 1 2 2 2
2 1 1 1 1 1 2 2 1 2 3 4 4 3 3 3 2 2 2 1 1 1 2 2 2 1 1 2 1 0 1 1 2 2 1 1 2 3 3 3 2 3 3
1 2 2 2 2 2 1 2 2 2 2 3 3 3 3 3 3 2 2 2 2 1 2 2 2 2 3 2 1 1 0 1 1 1 1 0 2 3 2 2 2 1 1
2 2 2 2 3 2 1 1 2 3 2 2 3 3 3 3 3 3 3 2 2 2 2 1 2 2 2 1 1 1 0 0 1 1 1 2 2 1 1 1 1 0 0
3 2 2 3 3 2 1 2 3 3 3 3 3 3 3 3 3 3 3 3 2 2 2 2 2 2 2 2 2 1 1 1 0 0 1 2 2 1 1 1 1 1 1
3 2 3 3 3 3 2 3 2 2 2 2 3 3 3 3 4 4 4 3 3 3 3 3 3 3 3 4 3 2 1 1 1 0 1 1 1 1 1 1 1 2 2
3 2 3 3 3 3 2 3 2 2 2 2 2 3 4 4 4 4 3 3 3 3 3 2 3 3 3 4 4 3 1 1 1 1 1 1 1 2 2 2 2 3 3
3 3 2 3 3 2 2 3 2 1 1 2 2 3 3 4 4 4 4 3 3 4 3 3 2 2 2 3 3 3 2 1 1 1 1 2 3 3 3 2 2 3 2
3 3 2 3 3 2 2 2 1 1 1 2 3 3 3 3 3 4 4 3 3 3 3 3 2 2 1 2 3 3 3 2 1 1 1 2 3 2 2 4 4 3 1
3 3 3 3 3 3 2 2 1 1 1 2 2 3 3 3 3 3 3 3 4 4 4 3 3 3 2 2 2 2 2 2 2 2 1 2 2 2 2 2 3 2 2
3 3 3 3 3 3 3 2 1 1 2 2 2 2 2 3 3 3 3 4 4 5 5 4 4 4 4 4 4 3 3 2 2 2 1 1 1 2 2 2 2 2 2
3 3 3 3 3 3 2 2 1 1 2 2 2 2 2 2 3 3 1 1 2 4 6 6 5 4 5 6 6 5 4 4 4 2 2 3 3 4 4 3 3 3 3
Wind_Direction
154 135 132 131 133 129 123 122 128 131 116 112 108 103 94 82 64 73 78 79 85 110 103 97 97 100 99 109 102 89 78 77 80 78 48 38 54 74 69 66 77 74 78
145 133 138 136 133 127 124 126 139 138 123 122 120 123 114 110 108 74 68 38 50 91 117 118 111 109 112 111 105 100 86 100 83 106 104 55 23 27 58 74 82 86 79
142 140 138 127 132 137 140 132 143 138 131 131 114 111 100 81 84 79 71 19 85 88 99 116 116 132 138 144 143 131 135 185 309 20 92 123 145 19 10 53 70 73 70
141 139 135 133 133 131 135 129 129 120 116 118 121 135 142 139 141 132 126 159 92 101 118 115 119 140 144 147 170 155 154 151 230 335 4 97 135 128 62 10 50 75 82
133 139 140 141 141 129 122 122 121 116 123 123 115 136 124 134 132 124 138 104 86 96 106 119 128 146 140 143 138 122 128 169 183 106 29 44 36 127 156 175 359 37 73
135 138 137 136 130 122 121 123 126 112 119 130 142 149 124 132 123 120 143 149 148 140 125 120 129 140 148 151 157 148 152 185 36 271 165 172 149 141 136 158 161 143 92
128 131 129 127 130 128 130 134 129 131 149 164 171 160 152 157 165 163 180 171 155 160 158 149 142 141 148 151 149 145 173 164 144 252 173 107 111 138 120 132 156 163 150
116 117 130 137 137 140 147 155 158 161 167 173 180 160 158 163 177 177 175 161 168 179 167 140 140 143 135 137 139 147 181 157 165 146 92 97 144 127 140 154 150 165 86
119 119 135 151 145 148 157 166 174 182 179 187 170 154 160 159 174 176 169 155 180 170 145 149 142 142 137 131 116 149 178 131 121 109 90 176 195 167 156 160 173 162 181
112 113 115 143 148 150 158 167 173 187 176 169 166 158 160 162 159 171 155 147 166 159 161 161 137 138 141 137 123 180 203 152 143 153 189 258 233 88 134 169 221 173 169
116 112 112 138 142 150 153 157 166 174 172 161 162 152 155 153 152 173 161 163 157 164 173 161 154 159 162 165 173 203 213 186 183 197 193 225 198 199 190 173 212 192 146
114 128 129 150 159 167 167 168 165 166 166 166 164 161 167 170 180 164 156 155 150 170 182 170 159 166 172 177 183 207 206 192 202 215 202 222 200 198 213 193 201 190 165
67 114 139 160 177 188 183 183 182 179 171 169 174 184 190 195 181 156 144 152 162 160 167 144 155 173 174 174 178 191 190 202 212 216 208 227 202 209 209 178 184 172 148
73 74 136 169 182 208 204 195 203 186 181 173 180 190 206 178 155 152 155 160 173 189 162 158 175 177 166 153 152 159 157 160 149 202 216 223 226 209 193 168 166 152 132
44 69 254 202 187 221 225 213 213 197 191 181 187 197 178 138 136 148 160 149 181 201 171 160 176 174 154 135 118 168 167 162 157 103 59 70 107 92 122 153 170 154 154
2 356 321 285 243 237 223 206 223 215 197 184 184 170 159 145 145 160 154 152 201 176 147 162 161 152 136 119 119 82 152 155 169 173 168 161 124 109 97 100 114 137 166
355 331 330 309 273 254 237 204 212 215 213 193 169 159 160 153 160 172 158 163 185 165 133 149 145 127 114 110 134 96 128 162 181 166 169 159 94 91 103 103 91 88 173
343 330 313 302 297 285 271 237 217 210 207 193 180 168 165 164 170 178 175 172 173 159 173 177 150 139 140 142 160 135 187 166 179 190 169 134 120 90 84 111 110 109 313
344 334 318 315 305 287 271 245 227 207 203 202 193 181 168 177 186 186 186 181 173 182 197 184 169 165 167 176 165 126 206 205 247 245 126 128 144 95 81 119 156 187 223
343 341 331 316 308 299 283 269 241 208 204 210 203 196 187 185 195 192 190 181 175 196 196 181 180 183 181 183 177 170 194 185 212 181 110 102 146 171 139 179 201 219 228
341 343 331 319 309 295 278 269 254 218 202 206 219 207 192 190 192 185 183 177 181 185 186 187 189 194 184 179 177 178 202 195 195 199 203 219 216 214 230 241 230 235 238
336 343 349 336 324 292 264 267 267 238 185 187 213 214 197 197 187 172 182 186 188 182 184 185 192 192 169 173 186 188 211 263 220 222 213 201 200 219 237 239 254 252 250
332 339 338 320 316 309 283 266 256 216 200 197 205 209 202 196 182 176 177 186 187 185 189 185 192 200 188 172 184 199 220 248 251 238 198 196 202 220 236 238 245 259 253
329 326 321 322 324 324 308 279 240 194 218 206 207 202 201 196 187 179 183 187 189 190 196 196 196 201 200 190 185 190 209 217 233 244 218 204 227 236 229 239 247 243 233
319 311 304 306 315 316 311 298 270 230 243 222 214 200 201 198 194 190 196 197 197 195 196 199 196 196 206 210 196 187 195 202 219 222 216 217 231 233 237 235 230 232 235
310 310 315 317 311 309 312 313 298 257 249 231 212 200 201 194 190 181 189 213 205 203 201 197 196 207 207 196 194 199 205 205 198 193 218 226 229 225 224 223 227 226 233
Height
1521 1523 1524 1526 1527 1528 1529 1530 1530 1531 1532 1533 1534 1535 1536 1537 1538 1539 1540 1540 1541 1541 1542 1542 1543 1544 1545 1546 1546 1547 1548 1548 1548 1549 1549 1550 1550 1550 1550 1550 1550 1550 1550
1520 1522 1523 1525 1526 1527 1528 1529 1530 1530 1531 1532 1533 1534 1536 1536 1537 1538 1539 1539 1540 1541 1541 1541 1543 1543 1544 1545 1546 1547 1547 1548 1549 1549 1549 1550 1552 1551 1552 1551 1551 1551 1551
1519 1521 1522 1524 1525 1526 1527 1528 1529 1530 1531 1532 1532 1534 1535 1536 1537 1537 1538 1539 1539 1540 1540 1541 1542 1543 1544 1545 1546 1546 1547 1548 1549 1549 1550 1550 1551 1552 1553 1552 1552 1552 1551
1518 1519 1521 1522 1523 1525 1526 1527 1528 1529 1530 1531 1532 1533 1534 1535 1536 1537 1537 1538 1539 1539 1540 1541 1541 1542 1543 1544 1545 1546 1547 1548 1548 1549 1550 1550 1550 1551 1552 1553 1552 1552 1552
1516 1518 1520 1521 1522 1524 1525 1526 1527 1528 1529 1530 1531 1532 1533 1534 1535 1536 1536 1537 1538 1539 1540 1540 1541 1542 1543 1543 1544 1545 1546 1547 1548 1548 1549 1549 1550 1550 1551 1551 1552 1552 1552
1515 1517 1519 1520 1521 1522 1524 1525 1526 1527 1528 1529 1530 1531 1532 1533 1534 1535 1536 1536 1537 1538 1539 1539 1540 1541 1542 1542 1543 1544 1545 1546 1547 1547 1548 1548 1549 1549 1549 1550 1550 1551 1551
1514 1516 1517 1518 1520 1521 1522 1524 1525 1526 1527 1528 1529 1530 1531 1532 1533 1534 1535 1535 1536 1536 1537 1538 1539 1540 1540 1541 1542 1543 1544 1545 1546 1546 1547 1547 1547 1548 1548 1548 1549 1549 1550
1513 1515 1516 1517 1518 1520 1521 1523 1524 1525 1526 1527 1528 1529 1530 1531 1532 1532 1533 1534 1535 1535 1536 1536 1537 1538 1539 1540 1541 1542 1543 1543 1544 1545 1545 1545 1546 1546 1547 1547 1547 1548 1549
1513 1514 1516 1517 1517 1518 1520 1521 1522 1524 1525 1526 1527 1527 1528 1529 1530 1531 1532 1533 1533 1534 1534 1535 1536 1536 1537 1538 1539 1540 1541 1542 1542 1543 1543 1544 1544 1545 1545 1546 1546 1547 1546
1512 1513 1515 1516 1517 1517 1518 1520 1521 1522 1523 1524 1525 1526 1527 1528 1529 1530 1530 1531 1531 1532 1533 1533 1534 1535 1535 1536 1537 1539 1539 1540 1541 1541 1542 1542 1543 1543 1544 1544 1544 1545 1545
1511 1513 1514 1515 1515 1516 1517 1518 1519 1520 1521 1522 1523 1524 1525 1526 1527 1528 1528 1529 1529 1530 1530 1531 1532 1532 1533 1534 1535 1536 1537 1538 1539 1539 1540 1540 1541 1541 1542 1542 1542 1543 1543
1511 1511 1512 1514 1514 1515 1516 1516 1517 1518 1519 1520 1521 1522 1523 1524 1525 1526 1526 1527 1527 1528 1529 1529 1530 1530 1531 1532 1534 1535 1536 1536 1537 1537 1538 1538 1539 1539 1539 1540 1540 1540 1540
1511 1511 1511 1512 1512 1513 1514 1515 1515 1516 1517 1518 1519 1520 1521 1522 1523 1523 1524 1525 1525 1526 1526 1527 1528 1529 1529 1530 1531 1532 1533 1534 1535 1535 1535 1536 1536 1537 1537 1537 1538 1538 1538
1510 1510 1510 1510 1511 1511 1512 1512 1513 1514 1515 1516 1517 1518 1519 1520 1520 1521 1522 1523 1523 1524 1524 1525 1526 1527 1527 1528 1529 1530 1531 1532 1532 1533 1533 1534 1534 1534 1534 1535 1535 1536 1536
1509 1509 1509 1509 1509 1509 1510 1510 1511 1512 1512 1513 1514 1515 1516 1517 1518 1519 1520 1520 1521 1522 1522 1522 1523 1524 1525 1526 1527 1528 1529 1529 1530 1531 1531 1531 1531 1532 1532 1532 1533 1533 1533
1507 1508 1508 1508 1508 1508 1508 1508 1508 1509 1510 1511 1512 1513 1514 1515 1516 1517 1517 1518 1519 1520 1520 1520 1521 1522 1523 1523 1525 1526 1526 1527 1527 1528 1528 1528 1529 1529 1529 1530 1530 1531 1531
1507 1507 1506 1506 1506 1506 1506 1506 1506 1506 1507 1508 1509 1510 1511 1512 1513 1514 1515 1516 1517 1517 1518 1519 1519 1520 1521 1522 1522 1523 1524 1524 1525 1525 1525 1526 1526 1526 1527 1527 1528 1528 1529
1505 1505 1505 1504 1504 1504 1504 1503 1503 1504 1504 1505 1506 1507 1508 1509 1511 1512 1512 1513 1514 1515 1516 1517 1517 1518 1519 1520 1521 1521 1522 1522 1523 1523 1523 1523 1524 1524 1524 1524 1525 1525 1526
1503 1503 1503 1502 1502 1502 1501 1501 1501 1501 1501 1502 1503 1505 1506 1507 1508 1509 1510 1511 1512 1513 1514 1514 1515 1516 1517 1518 1518 1519 1519 1520 1520 1521 1521 1521 1521 1522 1522 1522 1522 1522 1522
1501 1501 1500 1499 1499 1498 1498 1498 1498 1498 1498 1499 1500 1502 1503 1504 1505 1506 1507 1508 1509 1510 1511 1512 1513 1514 1514 1515 1516 1517 1517 1517 1517 1517 1518 1518 1519 1519 1519 1519 1519 1519 1519
1499 1498 1497 1496 1496 1495 1495 1495 1495 1495 1495 1496 1497 1498 1499 1500 1502 1503 1504 1505 1506 1507 1508 1509 1510 1511 1512 1512 1513 1514 1514 1514 1514 1514 1514 1515 1515 1516 1516 1516 1516 1516 1516
1497 1496 1495 1494 1493 1492 1493 1492 1493 1492 1493 1493 1494 1495 1496 1497 1499 1500 1501 1502 1503 1504 1505 1506 1507 1508 1509 1510 1510 1511 1512 1512 1512 1511 1512 1512 1512 1512 1512 1512 1512 1513 1513
1495 1494 1494 1493 1491 1491 1491 1490 1490 1491 1490 1490 1491 1492 1493 1494 1495 1496 1497 1498 1500 1501 1501 1502 1503 1504 1505 1506 1507 1507 1508 1508 1509 1508 1509 1509 1509 1509 1509 1509 1509 1509 1509
1493 1492 1492 1491 1490 1489 1489 1489 1489 1489 1488 1488 1488 1489 1490 1491 1492 1493 1494 1495 1496 1497 1498 1499 1500 1501 1502 1502 1503 1503 1504 1504 1505 1505 1505 1505 1505 1505 1505 1505 1505 1505 1506
1492 1491 1489 1489 1488 1487 1487 1487 1486 1486 1486 1486 1486 1487 1487 1488 1489 1490 1491 1491 1492 1493 1494 1495 1496 1497 1497 1498 1499 1500 1500 1500 1501 1501 1501 1501 1501 1501 1501 1501 1501 1501 1502
1490 1489 1488 1487 1486 1485 1485 1485 1485 1484 1484 1484 1484 1484 1484 1485 1486 1486 1487 1488 1490 1490 1491 1492 1493 1493 1494 1495 1496 1496 1497 1497 1497 1497 1496 1496 1496 1496 1497 1497 1497 1497 1497